Regional Weather Roundup
Issued by NWS Charleston, SC

Current Version | Previous Version | Graphics & Text | Print | Product List | Glossary On
Versions: 1 2 3 4 5 6 7 8 9 10 11 12 13 14 15 16 17 18 19 20 21 22 23 24 25 26 27 28 29 30 31 32 33 34 35 36 37 38 39 40 41 42 43 44 45 46 47 48 49 50
000
ASUS42 KCHS 120025
RWRCHS

REGIONAL WEATHER ROUNDUP
NATIONAL WEATHER SERVICE CHARLESTON SC
800 PM EDT FRI JUL 11 2014

NOTE: "FAIR" INDICATES FEW OR NO CLOUDS BELOW 12,000 FEET WITH NO
SIGNIFICANT WEATHER AND/OR OBSTRUCTIONS TO VISIBILITY.

NOT ALL STATIONS ARE QUALITY CONTROLLED BY THE NATIONAL
WEATHER SERVICE. USE DATA WITH CAUTION...ESPECIALLY
DEWPOINT OBSERVATIONS.

SCZ027-030-031-034>040-042>050-120100-
...SOUTH CAROLINA...

CITY           SKY/WX    TMP DP  RH WIND       PRES   REMARKS
N CHARLESTON   LGT RAIN  76  71  85 CALM      30.15S
6HR MIN TEMP:  74; 6HR MAX TEMP:  88; 6HR PCP:  0.95;

WATERFRONT PRK NOT AVBL
FORT JOHNSON   NOT AVBL
MOUNT PLEASANT FAIR      75  73  94 CALM      30.16R FOG
JOHNS ISLAND   CLEAR     79  72  78 CALM      30.16R
PINOPOLIS        N/A     86  73  66 NE3       30.08R HX  93
MONCKS CORNER    N/A     77  72  83 S3        30.16R
SUMMERVILLE    FAIR      77  72  83 CALM      30.16S
BEAUFORT MCAS  CLOUDY    84  71  65 S3        30.15R
6HR MIN TEMP:  83; 6HR MAX TEMP:  88; 6HR PCP: TRACE;

BEAUFORT ARPT  FAIR      81  73  78 E3        30.15R
HILTON HEAD IS CLOUDY    81  75  83 CALM      30.17R
GEORGETOWN     NOT AVBL
WALTERBORO     LGT RAIN  77  77 100 E3        30.16R
ORANGEBURG     MOCLDY    81  72  74 E5        30.15R
6HR MIN TEMP:  81; 6HR MAX TEMP:  87;

BARNWELL       FAIR      81  75  83 E3        30.16R
AIKEN          FAIR      81  73  78 E6        30.19R
MANNING        FAIR      81  81 100 CALM      30.16R HX  91
KINGSTREE      NOT AVBL
COLUMBIA       PTCLDY    84  71  65 SE8       30.14R
6HR MIN TEMP:  81; 6HR MAX TEMP:  87;

SUMTER         MOCLDY    82  73  73 SE5       30.14R
6HR MIN TEMP:  78; 6HR MAX TEMP:  85;

FLORENCE       PTCLDY    82  72  71 SE6       30.15R
6HR MIN TEMP:  80; 6HR MAX TEMP:  85;

MYRTLE BEACH   MOCLDY    79  73  83 SE8       30.16R
N MYRTLE BEACH MOCLDY    79  73  82 CALM      30.16R
6HR MIN TEMP:  76; 6HR MAX TEMP:  81; 6HR PCP: TRACE;


$$

GAZ063-065-086>088-099>101-113>116-118-119-134-136>141-150-120100-
...GEORGIA...

CITY           SKY/WX    TMP DP  RH WIND       PRES   REMARKS
SAVANNAH ARPT  MOCLDY    80  74  81 E5        30.14R
6HR MIN TEMP:  75; 6HR MAX TEMP:  88; 6HR PCP:  0.01;

HUNTER AAF     MOCLDY    79  77  93 NE1       30.12R
6HR MIN TEMP:  73; 6HR MAX TEMP:  79; 6HR PCP:  1.23;

FORT STEWART   CLOUDY    76  73  90 CALM      30.13R
6HR MIN TEMP:  73; 6HR MAX TEMP:  85; 6HR PCP:  0.23;

STATESBORO     NOT AVBL
SYLVANIA       MOCLDY    80  74  82 S3        30.17R
CLAXTON        FAIR      79  77  94 CALM      30.15R
THOMSON        PTCLDY    84  77  79 CALM      30.19R HX  94
AUGUSTA-BUSH   MOCLDY    81  71  71 SE7       30.14R
6HR MIN TEMP:  81; 6HR MAX TEMP:  91;

AUGUSTA-DANIEL MOCLDY    83  71  67 SE7       30.16R
SWAINSBORO     FAIR      82  75  78 SE6       30.15R
VIDALIA          N/A     79  72  78 SE3       30.15R
ALMA           MOCLDY    80  72  76 S6        30.13R
6HR MIN TEMP:  80; 6HR MAX TEMP:  87;

WAYCROSS       CLOUDY    79  77  92 CALM      30.14R
JESUP          NOT AVBL
BRUNSWICK      CLOUDY    75  72  88 CALM      30.15R
SAINT SIMONS   LGT RAIN  75  73  93 N6        30.13S
6HR MIN TEMP:  74; 6HR MAX TEMP:  87; 6HR PCP:  0.09;


$$

SCZ027-028-034-036>038-045-046-048>050-GAZ119-141-120100-
...LAKE AND SUPPLEMENTAL COASTAL OBSERVATIONS...

STATION/POSITION TIME  TEMP    WIND        PRES    WAVE   SWELL
                       AIR SEA DIR/SP/G            HT/PER HT/PER/DIR
                 (UTC) (F)     (DEG/KT/KT) (MB)    (FT/S) (FT/S/D)
UPR LAKE MARION  NOT AVBL
WINYAH BAY       0000   79     100/  6     1021.0S
LAKE MURRAY      0000   83     110/  7/ 10 1019.6S
ACE BASIN NERRS  0000   78        CALM     1021.0R
FORT PULASKI     0000   81 78  120/  4/  5   N/A
SAPELO ISLAND    2300   75      40/  3     1020.0F

$$

ANZ835-935-AMZ111-154-330-350-352-354-374-450-454-472-120100-
...C-MAN AND BUOY OBSERVATIONS...

STATION/POSITION TIME  TEMP    WIND        PRES    WAVE   SWELL
                       AIR SEA DIR/SP/G            HT/PER HT/PER/DIR
                 (UTC) (F)     (DEG/KT/KT) (MB)    (FT/S) (FT/S/D)
FOLLY BEACH CMAN 0000   80     140/  5/  6 1021.4R
BUOY 41004       0000   80 83  120/  6/  8 1020.4R   2/ 8   2/ 8
BUOY 41008       0000   82 84  170/  4/  6 1020.4R   2/ 9   2/110/ 9
5E ST. MARYS GA  0000      84                N/A     2/ 9
FRYING PAN BUOY  NOT AVBL
BUOY 41025       0000          VRB  8/  8  1021.0R   2/ 6   2/140/ 6
CAPE LOOKOUT NC  0000   78     230/  5/  5 1021.1R
BUOY 41002       NOT AVBL
BUOY 41010       0000   83 84  120/  6/  8 1020.4R   2/ 9   2/ 90/ 9
BUOY 41012       NOT AVBL
ST AUGUSTINE FL  0000   82     140/ 10/ 12 1020.8R
CAPERS NEARSHORE 2300   80     150/ 10/ 12   N/A
FRIPP NEARSHORE  2300   82     120/  8/  8   N/A


$$


USA.gov is the U.S. government's official web portal to all federal, state and local government web resources and services.